Terminal Aerodrome Forecast
Issued by NWS Sioux Falls, SD

Home | Current Version | Previous Version | Graphics & Text | Print | Product List | Glossary On
Versions: 1 2 3 4 5 6 7 8 9 10 11 12 13
256
FTUS43 KFSD 301731
TAFFSD
TAF
KFSD 301731Z 3018/0118 04018G25KT P6SM -RA SCT015 OVC022
     FM302200 03019G25KT 4SM -RASN OVC012
     FM010000 03019G26KT 2SM RASN OVC008
     FM010400 01017G25KT 4SM -SN OVC006
     FM010900 36016G24KT 1 1/2SM -SN OVC006
      TEMPO 0111/0113 1SM -SN
     FM011300 35017G25KT 3SM -SN OVC007
     FM011400 34017G25KT P6SM -RASN OVC008=

USA.gov is the U.S. government's official web portal to all federal, state and local government web resources and services.